owner,sensor,date,latitude,longitude,vertical_datum,mass_concentration_of_oxygen_in_sea_water,qcFlag 
DISL,ioos:station:DISL:DISL:1,2017-06-01T00:00:00Z,30.2513,-88.0778,2.153,6.81,1111122 
DISL,ioos:station:DISL:DISL:1,2017-06-01T00:30:00Z,30.2513,-88.0778,2.075,6.61,1111122 
DISL,ioos:station:DISL:DISL:1,2017-06-01T01:00:00Z,30.2513,-88.0778,2.065,6.74,1111122 
DISL,ioos:station:DISL:DISL:1,2017-06-01T01:30:00Z,30.2513,-88.0778,2.037,6.35,1111122 
DISL,ioos:station:DISL:DISL:1,2017-06-01T02:00:00Z,30.2513,-88.0778,2.017,7.02,1111122 
DISL,ioos:station:DISL:DISL:1,2017-06-01T02:30:00Z,30.2513,-88.0778,2.041,6.89,1111122 
DISL,ioos:station:DISL:DISL:1,2017-06-01T03:00:00Z,30.2513,-88.0778,1.994,7.03,1111122 
DISL,ioos:station:DISL:DISL:1,2017-06-01T03:30:00Z,30.2513,-88.0778,1.969,7.2,1111122 
DISL,ioos:station:DISL:DISL:1,2017-06-01T04:00:00Z,30.2513,-88.0778,1.974,7.26,1111122 
DISL,ioos:station:DISL:DISL:1,2017-06-01T04:30:00Z,30.2513,-88.0778,1.969,7.3,1111122 
DISL,ioos:station:DISL:DISL:1,2017-06-01T05:30:00Z,30.2513,-88.0778,1.974,7.26,1111122 
DISL,ioos:station:DISL:DISL:1,2017-06-01T06:00:00Z,30.2513,-88.0778,1.938,7.18,1111122 
DISL,ioos:station:DISL:DISL:1,2017-06-01T06:30:00Z,30.2513,-88.0778,1.941,7.07,1111122 
DISL,ioos:station:DISL:DISL:1,2017-06-01T07:00:00Z,30.2513,-88.0778,1.923,7.24,1111122 
DISL,ioos:station:DISL:DISL:1,2017-06-01T07:30:00Z,30.2513,-88.0778,1.925,7.04,1111122 
DISL,ioos:station:DISL:DISL:1,2017-06-01T08:00:00Z,30.2513,-88.0778,1.912,6.91,1111122 
DISL,ioos:station:DISL:DISL:1,2017-06-01T08:30:00Z,30.2513,-88.0778,1.896,6.95,1111122 
DISL,ioos:station:DISL:DISL:1,2017-06-01T09:00:00Z,30.2513,-88.0778,1.896,7.27,1111122 
DISL,ioos:station:DISL:DISL:1,2017-06-01T09:30:00Z,30.2513,-88.0778,1.919,7.39,1111122 
DISL,ioos:station:DISL:DISL:1,2017-06-01T10:00:00Z,30.2513,-88.0778,1.932,7.29,1111122 
DISL,ioos:station:DISL:DISL:1,2017-06-01T10:30:00Z,30.2513,-88.0778,1.949,7.05,1111122 
DISL,ioos:station:DISL:DISL:1,2017-06-01T11:00:00Z,30.2513,-88.0778,1.963,7.18,1111122 
DISL,ioos:station:DISL:DISL:1,2017-06-01T11:30:00Z,30.2513,-88.0778,1.958,6.38,1111122 
DISL,ioos:station:DISL:DISL:1,2017-06-01T12:00:00Z,30.2513,-88.0778,1.988,5.91,1111122 
DISL,ioos:station:DISL:DISL:1,2017-06-01T12:30:00Z,30.2513,-88.0778,1.985,5.53,1111122 
DISL,ioos:station:DISL:DISL:1,2017-06-01T13:00:00Z,30.2513,-88.0778,2.005,5.44,1111122 
DISL,ioos:station:DISL:DISL:1,2017-06-01T13:30:00Z,30.2513,-88.0778,2.025,5.61,1111122 
DISL,ioos:station:DISL:DISL:1,2017-06-01T14:00:00Z,30.2513,-88.0778,2.033,5.51,1111122 
DISL,ioos:station:DISL:DISL:1,2017-06-01T14:30:00Z,30.2513,-88.0778,2.062,5.75,1111122 
DISL,ioos:station:DISL:DISL:1,2017-06-01T15:00:00Z,30.2513,-88.0778,2.079,6.09,1111122 
DISL,ioos:station:DISL:DISL:1,2017-06-01T15:30:00Z,30.2513,-88.0778,2.074,4.91,1111122 
DISL,ioos:station:DISL:DISL:1,2017-06-01T16:00:00Z,30.2513,-88.0778,2.081,4.58,1111122 
DISL,ioos:station:DISL:DISL:1,2017-06-01T16:30:00Z,30.2513,-88.0778,2.097,4.61,1111122 
DISL,ioos:station:DISL:DISL:1,2017-06-01T17:00:00Z,30.2513,-88.0778,2.115,4.44,1111122 
DISL,ioos:station:DISL:DISL:1,2017-06-01T17:30:00Z,30.2513,-88.0778,2.123,5.0,1111122 
DISL,ioos:station:DISL:DISL:1,2017-06-01T18:00:00Z,30.2513,-88.0778,2.114,5.91,1111122 
DISL,ioos:station:DISL:DISL:1,2017-06-01T18:30:00Z,30.2513,-88.0778,2.076,5.73,1111122 
DISL,ioos:station:DISL:DISL:1,2017-06-01T19:00:00Z,30.2513,-88.0778,2.089,6.2,1111122 
DISL,ioos:station:DISL:DISL:1,2017-06-01T19:30:00Z,30.2513,-88.0778,2.088,7.05,1111122 
DISL,ioos:station:DISL:DISL:1,2017-06-01T20:00:00Z,30.2513,-88.0778,2.114,8.89,1111122 
DISL,ioos:station:DISL:DISL:1,2017-06-01T20:30:00Z,30.2513,-88.0778,2.087,9.27,1111122 
DISL,ioos:station:DISL:DISL:1,2017-06-01T21:00:00Z,30.2513,-88.0778,2.127,9.33,1111122 
DISL,ioos:station:DISL:DISL:1,2017-06-01T21:30:00Z,30.2513,-88.0778,2.121,9.4,1111122 
DISL,ioos:station:DISL:DISL:1,2017-06-01T22:00:00Z,30.2513,-88.0778,2.111,9.49,1111122 
DISL,ioos:station:DISL:DISL:1,2017-06-01T22:30:00Z,30.2513,-88.0778,2.113,9.12,1111122 
DISL,ioos:station:DISL:DISL:1,2017-06-01T23:00:00Z,30.2513,-88.0778,2.115,9.1,1111122 
DISL,ioos:station:DISL:DISL:1,2017-06-01T23:30:00Z,30.2513,-88.0778,2.095,8.73,1111122 
DISL,ioos:station:DISL:DISL:1,2017-06-02T00:00:00Z,30.2513,-88.0778,2.088,8.62,1111122 
DISL,ioos:station:DISL:DISL:1,2017-06-02T00:30:00Z,30.2513,-88.0778,2.069,8.69,1111122 
DISL,ioos:station:DISL:DISL:1,2017-06-02T01:00:00Z,30.2513,-88.0778,2.073,8.68,1111122 
DISL,ioos:station:DISL:DISL:1,2017-06-02T01:30:00Z,30.2513,-88.0778,2.033,8.71,1111122 
DISL,ioos:station:DISL:DISL:1,2017-06-02T02:00:00Z,30.2513,-88.0778,2.023,8.5,1111122 
DISL,ioos:station:DISL:DISL:1,2017-06-02T02:30:00Z,30.2513,-88.0778,2.023,8.31,1111122 
DISL,ioos:station:DISL:DISL:1,2017-06-02T03:00:00Z,30.2513,-88.0778,2.034,8.63,1111122 
DISL,ioos:station:DISL:DISL:1,2017-06-02T03:30:00Z,30.2513,-88.0778,2.026,8.55,1111122 
DISL,ioos:station:DISL:DISL:1,2017-06-02T04:00:00Z,30.2513,-88.0778,2.007,8.48,1111122 
DISL,ioos:station:DISL:DISL:1,2017-06-02T04:30:00Z,30.2513,-88.0778,2.007,8.34,1111122 
DISL,ioos:station:DISL:DISL:1,2017-06-02T05:30:00Z,30.2513,-88.0778,1.976,8.13,1111122 
DISL,ioos:station:DISL:DISL:1,2017-06-02T06:00:00Z,30.2513,-88.0778,1.973,8.26,1111122 
DISL,ioos:station:DISL:DISL:1,2017-06-02T06:30:00Z,30.2513,-88.0778,1.958,8.04,1111122 
DISL,ioos:station:DISL:DISL:1,2017-06-02T07:00:00Z,30.2513,-88.0778,1.977,8.09,1111122 
DISL,ioos:station:DISL:DISL:1,2017-06-02T07:30:00Z,30.2513,-88.0778,1.97,8.05,1111122 
DISL,ioos:station:DISL:DISL:1,2017-06-02T08:00:00Z,30.2513,-88.0778,1.988,7.32,1111122 
DISL,ioos:station:DISL:DISL:1,2017-06-02T08:30:00Z,30.2513,-88.0778,1.986,7.18,1111122 
DISL,ioos:station:DISL:DISL:1,2017-06-02T09:00:00Z,30.2513,-88.0778,2.004,7.01,1111122 
DISL,ioos:station:DISL:DISL:1,2017-06-02T09:30:00Z,30.2513,-88.0778,2.02,6.84,1111122 
DISL,ioos:station:DISL:DISL:1,2017-06-02T10:00:00Z,30.2513,-88.0778,2.0,6.87,1111122 
DISL,ioos:station:DISL:DISL:1,2017-06-02T10:30:00Z,30.2513,-88.0778,2.032,6.54,1111122 
DISL,ioos:station:DISL:DISL:1,2017-06-02T11:00:00Z,30.2513,-88.0778,2.049,6.41,1111122 
DISL,ioos:station:DISL:DISL:1,2017-06-02T11:30:00Z,30.2513,-88.0778,2.067,6.26,1111122 
DISL,ioos:station:DISL:DISL:1,2017-06-02T12:00:00Z,30.2513,-88.0778,2.098,6.11,1111122 
DISL,ioos:station:DISL:DISL:1,2017-06-02T12:30:00Z,30.2513,-88.0778,2.06,6.02,1111122 
DISL,ioos:station:DISL:DISL:1,2017-06-02T13:00:00Z,30.2513,-88.0778,2.101,5.71,1111122 
DISL,ioos:station:DISL:DISL:1,2017-06-02T13:30:00Z,30.2513,-88.0778,2.122,5.96,1111122 
DISL,ioos:station:DISL:DISL:1,2017-06-02T14:00:00Z,30.2513,-88.0778,2.12,6.26,1111122 
DISL,ioos:station:DISL:DISL:1,2017-06-02T14:30:00Z,30.2513,-88.0778,2.133,6.37,1111122 
DISL,ioos:station:DISL:DISL:1,2017-06-02T15:00:00Z,30.2513,-88.0778,2.137,6.61,1111122 
DISL,ioos:station:DISL:DISL:1,2017-06-02T15:30:00Z,30.2513,-88.0778,2.129,6.65,1111122 
DISL,ioos:station:DISL:DISL:1,2017-06-02T16:00:00Z,30.2513,-88.0778,2.131,6.91,1111122 
DISL,ioos:station:DISL:DISL:1,2017-06-02T16:30:00Z,30.2513,-88.0778,2.113,6.8,1111122 
DISL,ioos:station:DISL:DISL:1,2017-06-02T17:00:00Z,30.2513,-88.0778,2.109,8.3,1111122 
DISL,ioos:station:DISL:DISL:1,2017-06-02T17:30:00Z,30.2513,-88.0778,2.106,8.88,1111122 
DISL,ioos:station:DISL:DISL:1,2017-06-02T18:00:00Z,30.2513,-88.0778,2.107,8.76,1111122 
DISL,ioos:station:DISL:DISL:1,2017-06-02T18:30:00Z,30.2513,-88.0778,2.105,8.67,1111122 
DISL,ioos:station:DISL:DISL:1,2017-06-02T19:00:00Z,30.2513,-88.0778,2.084,8.21,1111122 
DISL,ioos:station:DISL:DISL:1,2017-06-02T19:30:00Z,30.2513,-88.0778,2.092,8.03,1111122 
DISL,ioos:station:DISL:DISL:1,2017-06-02T20:00:00Z,30.2513,-88.0778,2.102,7.69,1111122 
DISL,ioos:station:DISL:DISL:1,2017-06-02T20:30:00Z,30.2513,-88.0778,2.105,7.44,1111122 
DISL,ioos:station:DISL:DISL:1,2017-06-02T21:00:00Z,30.2513,-88.0778,2.088,7.65,1111122 
DISL,ioos:station:DISL:DISL:1,2017-06-02T21:30:00Z,30.2513,-88.0778,2.091,7.91,1111122 
DISL,ioos:station:DISL:DISL:1,2017-06-02T22:00:00Z,30.2513,-88.0778,2.099,7.74,1111122 
DISL,ioos:station:DISL:DISL:1,2017-06-02T22:30:00Z,30.2513,-88.0778,2.097,7.21,1111122 
DISL,ioos:station:DISL:DISL:1,2017-06-02T23:00:00Z,30.2513,-88.0778,2.093,7.6,1111122 
DISL,ioos:station:DISL:DISL:1,2017-06-02T23:30:00Z,30.2513,-88.0778,2.087,7.47,1111122 
DISL,ioos:station:DISL:DISL:1,2017-06-03T00:00:00Z,30.2513,-88.0778,2.096,7.75,1111122 
DISL,ioos:station:DISL:DISL:1,2017-06-03T00:30:00Z,30.2513,-88.0778,2.096,7.78,1111122 
DISL,ioos:station:DISL:DISL:1,2017-06-03T01:00:00Z,30.2513,-88.0778,2.088,7.86,1111122 
DISL,ioos:station:DISL:DISL:1,2017-06-03T01:30:00Z,30.2513,-88.0778,2.078,7.92,1111122 
DISL,ioos:station:DISL:DISL:1,2017-06-03T02:00:00Z,30.2513,-88.0778,2.087,7.05,1111122 
DISL,ioos:station:DISL:DISL:1,2017-06-03T02:30:00Z,30.2513,-88.0778,2.07,4.41,1111122 
DISL,ioos:station:DISL:DISL:1,2017-06-03T03:00:00Z,30.2513,-88.0778,2.043,3.66,1111122 
DISL,ioos:station:DISL:DISL:1,2017-06-03T03:30:00Z,30.2513,-88.0778,2.057,4.35,1111122 
DISL,ioos:station:DISL:DISL:1,2017-06-03T04:00:00Z,30.2513,-88.0778,2.05,5.44,1111122 
DISL,ioos:station:DISL:DISL:1,2017-06-03T04:30:00Z,30.2513,-88.0778,2.039,5.41,1111122 
DISL,ioos:station:DISL:DISL:1,2017-06-03T05:00:00Z,30.2513,-88.0778,2.025,5.47,1111122 
DISL,ioos:station:DISL:DISL:1,2017-06-03T05:30:00Z,30.2513,-88.0778,2.032,6.65,1111122 
DISL,ioos:station:DISL:DISL:1,2017-06-03T06:00:00Z,30.2513,-88.0778,2.029,7.06,1111122 
DISL,ioos:station:DISL:DISL:1,2017-06-03T06:30:00Z,30.2513,-88.0778,2.026,7.71,1111122 
DISL,ioos:station:DISL:DISL:1,2017-06-03T07:00:00Z,30.2513,-88.0778,2.033,7.57,1111122 
DISL,ioos:station:DISL:DISL:1,2017-06-03T07:30:00Z,30.2513,-88.0778,2.032,6.4,1111122 
DISL,ioos:station:DISL:DISL:1,2017-06-03T08:00:00Z,30.2513,-88.0778,2.05,5.01,1111122 
DISL,ioos:station:DISL:DISL:1,2017-06-03T08:30:00Z,30.2513,-88.0778,2.047,4.2,1111122 
DISL,ioos:station:DISL:DISL:1,2017-06-03T09:00:00Z,30.2513,-88.0778,2.06,4.52,1111122 
DISL,ioos:station:DISL:DISL:1,2017-06-03T09:30:00Z,30.2513,-88.0778,2.066,5.3,1111122 
DISL,ioos:station:DISL:DISL:1,2017-06-03T10:00:00Z,30.2513,-88.0778,2.092,5.08,1111122 
DISL,ioos:station:DISL:DISL:1,2017-06-03T10:30:00Z,30.2513,-88.0778,2.085,5.08,1111122 
DISL,ioos:station:DISL:DISL:1,2017-06-03T11:00:00Z,30.2513,-88.0778,2.099,6.26,1111122 
DISL,ioos:station:DISL:DISL:1,2017-06-03T11:30:00Z,30.2513,-88.0778,2.125,6.65,1111122 
DISL,ioos:station:DISL:DISL:1,2017-06-03T12:00:00Z,30.2513,-88.0778,2.132,6.49,1111122 
DISL,ioos:station:DISL:DISL:1,2017-06-03T12:30:00Z,30.2513,-88.0778,2.135,6.27,1111122 
DISL,ioos:station:DISL:DISL:1,2017-06-03T13:00:00Z,30.2513,-88.0778,2.148,6.12,1111122 
DISL,ioos:station:DISL:DISL:1,2017-06-03T13:30:00Z,30.2513,-88.0778,2.153,6.07,1111122 
DISL,ioos:station:DISL:DISL:1,2017-06-03T14:00:00Z,30.2513,-88.0778,2.168,6.07,1111122 
DISL,ioos:station:DISL:DISL:1,2017-06-03T14:30:00Z,30.2513,-88.0778,2.18,5.78,1111122 
DISL,ioos:station:DISL:DISL:1,2017-06-03T15:00:00Z,30.2513,-88.0778,2.153,6.22,1111122 
DISL,ioos:station:DISL:DISL:1,2017-06-03T15:30:00Z,30.2513,-88.0778,2.144,6.58,1111122 
DISL,ioos:station:DISL:DISL:1,2017-06-03T16:00:00Z,30.2513,-88.0778,2.134,6.73,1111122 
DISL,ioos:station:DISL:DISL:1,2017-06-03T16:30:00Z,30.2513,-88.0778,2.125,6.89,1111122 
DISL,ioos:station:DISL:DISL:1,2017-06-03T17:00:00Z,30.2513,-88.0778,2.107,6.57,1111122 
DISL,ioos:station:DISL:DISL:1,2017-06-03T17:30:00Z,30.2513,-88.0778,2.092,6.99,1111122 
DISL,ioos:station:DISL:DISL:1,2017-06-03T18:00:00Z,30.2513,-88.0778,2.078,8.42,1111122 
DISL,ioos:station:DISL:DISL:1,2017-06-03T18:30:00Z,30.2513,-88.0778,2.084,8.24,1111122 
DISL,ioos:station:DISL:DISL:1,2017-06-03T19:00:00Z,30.2513,-88.0778,2.078,8.47,1111122 
DISL,ioos:station:DISL:DISL:1,2017-06-03T19:30:00Z,30.2513,-88.0778,2.055,8.33,1111122 
DISL,ioos:station:DISL:DISL:1,2017-06-03T20:00:00Z,30.2513,-88.0778,2.06,8.12,1111122 
DISL,ioos:station:DISL:DISL:1,2017-06-03T20:30:00Z,30.2513,-88.0778,2.052,8.15,1111122 
DISL,ioos:station:DISL:DISL:1,2017-06-03T21:00:00Z,30.2513,-88.0778,2.045,8.33,1111122 
DISL,ioos:station:DISL:DISL:1,2017-06-03T21:30:00Z,30.2513,-88.0778,2.029,8.39,1111122 
DISL,ioos:station:DISL:DISL:1,2017-06-03T22:00:00Z,30.2513,-88.0778,2.016,8.81,1111122 
DISL,ioos:station:DISL:DISL:1,2017-06-03T22:30:00Z,30.2513,-88.0778,2.023,8.93,1111122 
DISL,ioos:station:DISL:DISL:1,2017-06-03T23:00:00Z,30.2513,-88.0778,2.024,8.94,1111122 
DISL,ioos:station:DISL:DISL:1,2017-06-03T23:30:00Z,30.2513,-88.0778,2.04,9.0,1111122 
DISL,ioos:station:DISL:DISL:1,2017-06-04T00:00:00Z,30.2513,-88.0778,2.055,8.73,1111122 
DISL,ioos:station:DISL:DISL:1,2017-06-04T00:30:00Z,30.2513,-88.0778,2.036,8.43,1111122 
DISL,ioos:station:DISL:DISL:1,2017-06-04T01:00:00Z,30.2513,-88.0778,1.986,8.15,1111122 
DISL,ioos:station:DISL:DISL:1,2017-06-04T01:30:00Z,30.2513,-88.0778,2.007,8.86,1111122 
DISL,ioos:station:DISL:DISL:1,2017-06-04T02:00:00Z,30.2513,-88.0778,1.979,8.69,1111122 
DISL,ioos:station:DISL:DISL:1,2017-06-04T02:30:00Z,30.2513,-88.0778,2.012,8.85,1111122 
DISL,ioos:station:DISL:DISL:1,2017-06-04T03:00:00Z,30.2513,-88.0778,2.0,8.73,1111122 
DISL,ioos:station:DISL:DISL:1,2017-06-04T03:30:00Z,30.2513,-88.0778,2.029,8.66,1111122 
DISL,ioos:station:DISL:DISL:1,2017-06-04T04:00:00Z,30.2513,-88.0778,2.025,8.18,1111122 
DISL,ioos:station:DISL:DISL:1,2017-06-04T04:30:00Z,30.2513,-88.0778,2.026,8.22,1111122 
DISL,ioos:station:DISL:DISL:1,2017-06-04T05:30:00Z,30.2513,-88.0778,2.013,7.41,1111122 
DISL,ioos:station:DISL:DISL:1,2017-06-04T06:00:00Z,30.2513,-88.0778,2.022,6.82,1111122 
DISL,ioos:station:DISL:DISL:1,2017-06-04T06:30:00Z,30.2513,-88.0778,2.042,6.28,1111122 
DISL,ioos:station:DISL:DISL:1,2017-06-04T07:00:00Z,30.2513,-88.0778,2.054,5.98,1111122 
DISL,ioos:station:DISL:DISL:1,2017-06-04T07:30:00Z,30.2513,-88.0778,2.068,5.94,1111122 
DISL,ioos:station:DISL:DISL:1,2017-06-04T08:00:00Z,30.2513,-88.0778,2.09,5.95,1111122 
DISL,ioos:station:DISL:DISL:1,2017-06-04T08:30:00Z,30.2513,-88.0778,2.115,6.13,1111122 
DISL,ioos:station:DISL:DISL:1,2017-06-04T09:00:00Z,30.2513,-88.0778,2.121,6.21,1111122 
DISL,ioos:station:DISL:DISL:1,2017-06-04T09:30:00Z,30.2513,-88.0778,2.14,6.4,1111122 
DISL,ioos:station:DISL:DISL:1,2017-06-04T10:00:00Z,30.2513,-88.0778,2.17,6.28,1111122 
DISL,ioos:station:DISL:DISL:1,2017-06-04T10:30:00Z,30.2513,-88.0778,2.188,6.77,1111122 
DISL,ioos:station:DISL:DISL:1,2017-06-04T11:00:00Z,30.2513,-88.0778,2.193,6.85,1111122 
DISL,ioos:station:DISL:DISL:1,2017-06-04T11:30:00Z,30.2513,-88.0778,2.195,6.45,1111122 
DISL,ioos:station:DISL:DISL:1,2017-06-04T12:00:00Z,30.2513,-88.0778,2.199,6.42,1111122 
DISL,ioos:station:DISL:DISL:1,2017-06-04T12:30:00Z,30.2513,-88.0778,2.215,7.24,1111122 
DISL,ioos:station:DISL:DISL:1,2017-06-04T13:00:00Z,30.2513,-88.0778,2.221,7.61,1111122 
DISL,ioos:station:DISL:DISL:1,2017-06-04T13:30:00Z,30.2513,-88.0778,2.203,7.71,1111122 
DISL,ioos:station:DISL:DISL:1,2017-06-04T14:00:00Z,30.2513,-88.0778,2.216,7.94,1111122 
DISL,ioos:station:DISL:DISL:1,2017-06-04T14:30:00Z,30.2513,-88.0778,2.223,7.72,1111122 
DISL,ioos:station:DISL:DISL:1,2017-06-04T15:00:00Z,30.2513,-88.0778,2.213,7.94,1111122 
DISL,ioos:station:DISL:DISL:1,2017-06-04T15:30:00Z,30.2513,-88.0778,2.206,8.14,1111122 
DISL,ioos:station:DISL:DISL:1,2017-06-04T16:00:00Z,30.2513,-88.0778,2.192,8.39,1111122 
DISL,ioos:station:DISL:DISL:1,2017-06-04T16:30:00Z,30.2513,-88.0778,2.176,8.49,1111122 
DISL,ioos:station:DISL:DISL:1,2017-06-04T17:00:00Z,30.2513,-88.0778,2.158,8.31,1111122 
DISL,ioos:station:DISL:DISL:1,2017-06-04T17:30:00Z,30.2513,-88.0778,2.135,7.51,1111122 
DISL,ioos:station:DISL:DISL:1,2017-06-04T18:00:00Z,30.2513,-88.0778,2.121,8.94,1111122 
DISL,ioos:station:DISL:DISL:1,2017-06-04T18:30:00Z,30.2513,-88.0778,2.112,10.21,1111122 
DISL,ioos:station:DISL:DISL:1,2017-06-04T19:00:00Z,30.2513,-88.0778,2.083,9.99,1111122 
DISL,ioos:station:DISL:DISL:1,2017-06-04T19:30:00Z,30.2513,-88.0778,2.079,9.84,1111122 
DISL,ioos:station:DISL:DISL:1,2017-06-04T20:00:00Z,30.2513,-88.0778,2.073,9.54,1111122 
DISL,ioos:station:DISL:DISL:1,2017-06-04T20:30:00Z,30.2513,-88.0778,2.046,9.26,1111122 
DISL,ioos:station:DISL:DISL:1,2017-06-04T21:00:00Z,30.2513,-88.0778,2.058,10.3,1111122 
DISL,ioos:station:DISL:DISL:1,2017-06-04T21:30:00Z,30.2513,-88.0778,2.059,9.88,1111122 
DISL,ioos:station:DISL:DISL:1,2017-06-04T22:00:00Z,30.2513,-88.0778,2.073,8.41,1111122 
DISL,ioos:station:DISL:DISL:1,2017-06-04T22:30:00Z,30.2513,-88.0778,2.064,8.68,1111122 
DISL,ioos:station:DISL:DISL:1,2017-06-04T23:00:00Z,30.2513,-88.0778,2.053,8.44,1111122 
DISL,ioos:station:DISL:DISL:1,2017-06-04T23:30:00Z,30.2513,-88.0778,2.052,8.4,1111122 
DISL,ioos:station:DISL:DISL:1,2017-06-05T00:00:00Z,30.2513,-88.0778,2.037,8.65,1111122 
DISL,ioos:station:DISL:DISL:1,2017-06-05T00:30:00Z,30.2513,-88.0778,2.042,8.62,1111122 
DISL,ioos:station:DISL:DISL:1,2017-06-05T01:00:00Z,30.2513,-88.0778,2.059,8.46,1111122 
DISL,ioos:station:DISL:DISL:1,2017-06-05T01:30:00Z,30.2513,-88.0778,2.019,8.3,1111122 
DISL,ioos:station:DISL:DISL:1,2017-06-05T02:00:00Z,30.2513,-88.0778,2.041,8.55,1111122 
DISL,ioos:station:DISL:DISL:1,2017-06-05T02:30:00Z,30.2513,-88.0778,2.052,8.83,1111122 
DISL,ioos:station:DISL:DISL:1,2017-06-05T03:00:00Z,30.2513,-88.0778,2.052,8.79,1111122 
DISL,ioos:station:DISL:DISL:1,2017-06-05T03:30:00Z,30.2513,-88.0778,2.068,7.97,1111122 
DISL,ioos:station:DISL:DISL:1,2017-06-05T04:00:00Z,30.2513,-88.0778,2.079,6.78,1111122 
DISL,ioos:station:DISL:DISL:1,2017-06-05T04:30:00Z,30.2513,-88.0778,2.081,7.28,1111122 
DISL,ioos:station:DISL:DISL:1,2017-06-05T05:30:00Z,30.2513,-88.0778,2.103,7.67,1111122 
DISL,ioos:station:DISL:DISL:1,2017-06-05T06:00:00Z,30.2513,-88.0778,2.122,7.52,1111122 
DISL,ioos:station:DISL:DISL:1,2017-06-05T06:30:00Z,30.2513,-88.0778,2.121,7.87,1111122 
DISL,ioos:station:DISL:DISL:1,2017-06-05T07:00:00Z,30.2513,-88.0778,2.14,7.52,1111122 
DISL,ioos:station:DISL:DISL:1,2017-06-05T07:30:00Z,30.2513,-88.0778,2.134,7.1,1111122 
DISL,ioos:station:DISL:DISL:1,2017-06-05T08:00:00Z,30.2513,-88.0778,2.157,6.79,1111122 
DISL,ioos:station:DISL:DISL:1,2017-06-05T08:30:00Z,30.2513,-88.0778,2.186,6.72,1111122 
DISL,ioos:station:DISL:DISL:1,2017-06-05T09:00:00Z,30.2513,-88.0778,2.209,6.51,1111122 
DISL,ioos:station:DISL:DISL:1,2017-06-05T09:30:00Z,30.2513,-88.0778,2.225,6.67,1111122 
DISL,ioos:station:DISL:DISL:1,2017-06-05T10:00:00Z,30.2513,-88.0778,2.227,6.67,1111122 
DISL,ioos:station:DISL:DISL:1,2017-06-05T10:30:00Z,30.2513,-88.0778,2.283,6.6,1111122 
DISL,ioos:station:DISL:DISL:1,2017-06-05T11:00:00Z,30.2513,-88.0778,2.287,6.59,1111122 
DISL,ioos:station:DISL:DISL:1,2017-06-05T11:30:00Z,30.2513,-88.0778,2.287,6.75,1111122 
DISL,ioos:station:DISL:DISL:1,2017-06-05T12:00:00Z,30.2513,-88.0778,2.295,6.72,1111122 
DISL,ioos:station:DISL:DISL:1,2017-06-05T12:30:00Z,30.2513,-88.0778,2.295,6.54,1111122 
DISL,ioos:station:DISL:DISL:1,2017-06-05T13:00:00Z,30.2513,-88.0778,2.288,6.49,1111122 
DISL,ioos:station:DISL:DISL:1,2017-06-05T13:30:00Z,30.2513,-88.0778,2.288,6.28,1111122 
DISL,ioos:station:DISL:DISL:1,2017-06-05T14:00:00Z,30.2513,-88.0778,2.285,5.75,1111122 
DISL,ioos:station:DISL:DISL:1,2017-06-05T14:30:00Z,30.2513,-88.0778,2.29,5.81,1111122 
DISL,ioos:station:DISL:DISL:1,2017-06-05T15:00:00Z,30.2513,-88.0778,2.292,5.46,1111122 
DISL,ioos:station:DISL:DISL:1,2017-06-05T15:30:00Z,30.2513,-88.0778,2.287,5.84,1111122 
DISL,ioos:station:DISL:DISL:1,2017-06-05T16:00:00Z,30.2513,-88.0778,2.259,5.8,1111122 
DISL,ioos:station:DISL:DISL:1,2017-06-05T16:30:00Z,30.2513,-88.0778,2.239,6.49,1111122 
DISL,ioos:station:DISL:DISL:1,2017-06-05T17:00:00Z,30.2513,-88.0778,2.218,6.37,1111122 
DISL,ioos:station:DISL:DISL:1,2017-06-05T17:30:00Z,30.2513,-88.0778,2.176,6.52,1111122 
DISL,ioos:station:DISL:DISL:1,2017-06-05T18:00:00Z,30.2513,-88.0778,2.18,6.8,1111122 
DISL,ioos:station:DISL:DISL:1,2017-06-05T18:30:00Z,30.2513,-88.0778,2.152,7.48,1111122 
DISL,ioos:station:DISL:DISL:1,2017-06-05T19:00:00Z,30.2513,-88.0778,2.137,7.39,1111122 
DISL,ioos:station:DISL:DISL:1,2017-06-05T19:30:00Z,30.2513,-88.0778,2.097,8.13,1111122 
DISL,ioos:station:DISL:DISL:1,2017-06-05T20:00:00Z,30.2513,-88.0778,2.104,8.23,1111122 
DISL,ioos:station:DISL:DISL:1,2017-06-05T20:30:00Z,30.2513,-88.0778,2.139,8.33,1111122 
DISL,ioos:station:DISL:DISL:1,2017-06-05T21:00:00Z,30.2513,-88.0778,2.098,7.91,1111122 
DISL,ioos:station:DISL:DISL:1,2017-06-05T21:30:00Z,30.2513,-88.0778,2.063,7.6,1111122 
DISL,ioos:station:DISL:DISL:1,2017-06-05T22:00:00Z,30.2513,-88.0778,2.057,7.58,1111122 
DISL,ioos:station:DISL:DISL:1,2017-06-05T22:30:00Z,30.2513,-88.0778,2.067,6.63,1111122 
DISL,ioos:station:DISL:DISL:1,2017-06-05T23:00:00Z,30.2513,-88.0778,2.046,7.23,1111122 
DISL,ioos:station:DISL:DISL:1,2017-06-05T23:30:00Z,30.2513,-88.0778,2.031,6.74,1111122 
DISL,ioos:station:DISL:DISL:1,2017-06-06T00:00:00Z,30.2513,-88.0778,2.056,6.94,1111122 
DISL,ioos:station:DISL:DISL:1,2017-06-06T00:30:00Z,30.2513,-88.0778,2.073,6.66,1111122 
DISL,ioos:station:DISL:DISL:1,2017-06-06T01:00:00Z,30.2513,-88.0778,2.053,7.06,1111122 
DISL,ioos:station:DISL:DISL:1,2017-06-06T01:30:00Z,30.2513,-88.0778,2.062,6.98,1111122 
DISL,ioos:station:DISL:DISL:1,2017-06-06T02:00:00Z,30.2513,-88.0778,2.048,7.19,1111122 
DISL,ioos:station:DISL:DISL:1,2017-06-06T02:30:00Z,30.2513,-88.0778,2.072,7.63,1111122 
DISL,ioos:station:DISL:DISL:1,2017-06-06T03:00:00Z,30.2513,-88.0778,2.083,7.18,1111122 
DISL,ioos:station:DISL:DISL:1,2017-06-06T03:30:00Z,30.2513,-88.0778,2.105,6.53,1111122 
DISL,ioos:station:DISL:DISL:1,2017-06-06T04:00:00Z,30.2513,-88.0778,2.087,5.64,1111122 
DISL,ioos:station:DISL:DISL:1,2017-06-06T04:30:00Z,30.2513,-88.0778,2.116,5.52,1111122 
DISL,ioos:station:DISL:DISL:1,2017-06-06T05:30:00Z,30.2513,-88.0778,2.146,5.0,1111122 
DISL,ioos:station:DISL:DISL:1,2017-06-06T06:00:00Z,30.2513,-88.0778,2.132,5.03,1111122 
DISL,ioos:station:DISL:DISL:1,2017-06-06T06:30:00Z,30.2513,-88.0778,2.18,5.08,1111122 
DISL,ioos:station:DISL:DISL:1,2017-06-06T07:00:00Z,30.2513,-88.0778,2.22,5.19,1111122 
DISL,ioos:station:DISL:DISL:1,2017-06-06T07:30:00Z,30.2513,-88.0778,2.201,4.96,1111122 
DISL,ioos:station:DISL:DISL:1,2017-06-06T08:00:00Z,30.2513,-88.0778,2.179,5.27,1111122 
DISL,ioos:station:DISL:DISL:1,2017-06-06T08:30:00Z,30.2513,-88.0778,2.216,5.53,1111122 
DISL,ioos:station:DISL:DISL:1,2017-06-06T09:00:00Z,30.2513,-88.0778,2.295,5.38,1111122 
DISL,ioos:station:DISL:DISL:1,2017-06-06T09:30:00Z,30.2513,-88.0778,2.28,5.78,1111122 
DISL,ioos:station:DISL:DISL:1,2017-06-06T10:00:00Z,30.2513,-88.0778,2.279,5.25,1111122 
DISL,ioos:station:DISL:DISL:1,2017-06-06T10:30:00Z,30.2513,-88.0778,2.335,5.52,1111122 
DISL,ioos:station:DISL:DISL:1,2017-06-06T11:00:00Z,30.2513,-88.0778,2.362,5.42,1111122 
DISL,ioos:station:DISL:DISL:1,2017-06-06T11:30:00Z,30.2513,-88.0778,2.415,5.38,1111122 
DISL,ioos:station:DISL:DISL:1,2017-06-06T12:00:00Z,30.2513,-88.0778,2.395,5.18,1111122 
DISL,ioos:station:DISL:DISL:1,2017-06-06T12:30:00Z,30.2513,-88.0778,2.381,5.29,1111122 
DISL,ioos:station:DISL:DISL:1,2017-06-06T13:00:00Z,30.2513,-88.0778,2.418,5.25,1111122 
DISL,ioos:station:DISL:DISL:1,2017-06-06T13:30:00Z,30.2513,-88.0778,2.406,5.24,1111122 
DISL,ioos:station:DISL:DISL:1,2017-06-06T14:00:00Z,30.2513,-88.0778,2.387,5.32,1111122 
DISL,ioos:station:DISL:DISL:1,2017-06-06T14:30:00Z,30.2513,-88.0778,2.438,5.36,1111122 
DISL,ioos:station:DISL:DISL:1,2017-06-06T15:00:00Z,30.2513,-88.0778,2.447,6.37,1111122 
DISL,ioos:station:DISL:DISL:1,2017-06-06T15:30:00Z,30.2513,-88.0778,2.423,6.69,1111122 
DISL,ioos:station:DISL:DISL:1,2017-06-06T16:00:00Z,30.2513,-88.0778,2.391,6.57,1111122 
DISL,ioos:station:DISL:DISL:1,2017-06-06T16:30:00Z,30.2513,-88.0778,2.363,6.71,1111122 
DISL,ioos:station:DISL:DISL:1,2017-06-06T17:00:00Z,30.2513,-88.0778,2.366,7.2,1111122 
DISL,ioos:station:DISL:DISL:1,2017-06-06T17:30:00Z,30.2513,-88.0778,2.341,7.39,1111122 
DISL,ioos:station:DISL:DISL:1,2017-06-06T18:00:00Z,30.2513,-88.0778,2.333,7.6,1111122 